STARLINK-5749, 55569

Orbit data source: Space-Track

STARLINK-5749, 55569 is a payload satellite owned by SpaceX/Seattle (US) in LEO that was launched on Sun, 12 Feb 2023 UTC via an FALCON 9 launch vehicle from the Air Force Eastern Test Range (AFETR). Payload-class satellites include a variety of spacecraft equipped with specific instruments for various scientific and technological missions. These include communications satellites like Starlink; space stations such as the ISS; scientific satellites like the Hubble; Earth observation satellites from companies like Planet Labs, Umbra, and HawkEye 360; GPS; miniature CubeSats for education and research; and military/defense satellites.

Loading next visibility...
Identifier
55569, 2023-020A
Orbit
LEO
Country
Flag of USUS
Related business
Manufacturer
SpaceX/Seattle
Mission
Operational Commercial Communications
Bus & Motor
STARLINK, Unknown motor
Mass
305 kg wet, ~290 kg dry
Launch date (UTC)
2023-02-12 (4 years ago)
Launch vehicle
FALCON 9
Launch site
Air Force Eastern Test Range (AFETR)
Object type
Payload
Rocket body
Debris
Shape & HBR
Box + 1 Pan, 10.1 m
Radar Cross Section
13.562 m², Large (>1 m²)

Expand to show TLE details & history
Last TLE update: 17 hours ago

TLE from 17 hours ago
0 STARLINK-5749
1 55569U 23020A   26263.69725890 -.00000872  00000-0 -22148-4 0  9992
2 55569  43.0056 347.5666 0002379 292.8227  67.2374 15.27575456199768
Epoch: 2026-09-20T16:44Z
TLE epoch observation values (Epoch: 2026-09-20T16:44:03.168Z)
Latitude
0.00001°
Longitude
96.96569°
Altitude
482.208 km
Speed
7.627 km/s
True Right ascension
23h 10m 15s
True Declination
0° 00' 00"
Sunlit
Object was in full shadow at epoch
Visualization orbit readout
Latitude
Unknown
Longitude
Unknown
Altitude
Unknown
Speed
Unknown
Apparent Right ascension
Unknown
Apparent Declination
Unknown
Sunlit
N/A
Visualization observer readout
Local Sidereal Time
03:12:35
Azimuth
Unknown
Elevation
Unknown
Doppler factor
Unknown
Orbital elements
Apogee altitude
486.64 km
Perigee altitude
483.374 km
Semi-major axis
6,863.144 km
Eccentricity
0.00024
Inclination
43.0056°
RAAN
347.5666°
Arg. of periapsis
292.8227°
True anomaly
67.26254°
Mean anomaly
67.2374°
Eccentric anomaly
67.24997°
Mean motion
3.81732 °/min
Orbital period
94.31 mins
BSTAR
-0.000022148
Loading maneuver chart data...
Computing Atmospheric mass density...
Loading historical data...
Loading historical data...
Loading historical data...
Loading historical data...
Loading historical data...
Loading historical data...
Loading historical data...

Documentation

Showing up to 5 results
|